Regional Weather Roundup
Issued by NWS

Home | Current Version | Previous Version | Graphics & Text | Print | Product List | Glossary On
Versions: 1 2 3 4 5 6 7 8 9 10 11 12 13 14 15 16 17 18 19 20 21 22 23 24 25 26 27 28 29 30 31 32 33 34 35 36 37 38 39 40 41 42 43 44 45 46 47 48 49 50
000
ASUS43 KBIS 231001
RWRND

NORTH DAKOTA REGIONAL WEATHER ROUNDUP
NATIONAL WEATHER SERVICE BISMARCK ND
500 AM CDT SAT MAY 23 2015

NOTE: "FAIR" INDICATES FEW OR NO CLOUDS BELOW 12,000 FEET WITH NO
SIGNIFICANT WEATHER AND/OR OBSTRUCTIONS TO VISIBILITY.


NDZ001>003-009>011-017-231100-
NORTHWEST NORTH DAKOTA

CITY           SKY/WX    TMP DP  RH WIND       PRES   REMARKS
WILLISTON      CLEAR     46  38  73 NE5       30.11R
MINOT          PTCLDY    55  38  52 SW10      30.10S
MINOT AFB      PTCLDY    55  40  56 W5        30.09S
$$

NDZ018>021-031>035-040>046-231100-
SOUTHWEST NORTH DAKOTA

CITY           SKY/WX    TMP DP  RH WIND       PRES   REMARKS
BISMARCK       PTCLDY    43  40  89 SE6       30.16S
DICKINSON      PTCLDY    40  36  86 E7        30.09R
GARRISON         N/A     46  40  79 CALM      30.13R
HETTINGER ARPT CLEAR     41  38  89 E8        30.11R
$$

NDZ004>008-012>016-024-026-027-054-231100-
NORTHEAST NORTH DAKOTA

CITY           SKY/WX    TMP DP  RH WIND       PRES   REMARKS
GRAND FORKS    CLEAR     48  40  73 SE8       30.13S
GRND FRKS AFB  CLEAR     45  39  82 S2        30.13S
DEVILS LAKE    CLEAR     50  37  62 CALM      30.12S
$$

NDZ022-023-025-028>030-036>039-047>053-231100-
SOUTHEAST NORTH DAKOTA

CITY           SKY/WX    TMP DP  RH WIND       PRES   REMARKS
FARGO          CLEAR     52  45  77 S7        30.16R
JAMESTOWN      PTCLDY    53  43  68 SW10      30.16R
$$



USA.gov is the U.S. government's official web portal to all federal, state and local government web resources and services.